Regional Weather Roundup
Issued by NWS

Home | Current Version | Previous Version | Graphics & Text | Print | Product List | Glossary On
Versions: 1 2 3 4 5 6 7 8 9 10 11 12 13 14 15 16 17 18 19 20 21 22 23 24 25 26 27 28 29 30 31 32 33 34 35 36 37 38 39 40 41 42 43 44 45 46 47 48 49 50
000
ASUS43 KTOP 020059
RWRKS

WEATHER ROUNDUP FOR KANSAS
NATIONAL WEATHER SERVICE GOODLAND KS
800 PM CDT SAT AUG 01 2015

NOTE:  "FAIR" INDICATES FEW OR NO CLOUDS BELOW 12,000 FEET WITH NO
SIGNIFICANT WEATHER AND/OR OBSTRUCTIONS TO VISIBILITY.

KSZ001>006-013>018-027>032-041>047-020200-
NORTHWEST KANSAS

CITY           SKY/WX    TMP DP  RH WIND       PRES   REMARKS
GOODLAND       CLEAR     85  53  33 SE18G24   30.02F
HAYS           CLEAR     88  61  40 S12       29.95S
HILL CITY      CLEAR     89  60  37 S10       29.95F
RUSSELL        CLEAR     87  62  43 S10       29.93F
$$

KSZ061>065-074>080-084>089-020200-
SOUTHWEST KANSAS

CITY           SKY/WX    TMP DP  RH WIND       PRES   REMARKS
DODGE CITY     PTCLDY    84  63  49 SE14      29.99S
ELKHART          N/A     80  67  64 S9          N/A
GARDEN CITY    PTCLDY    82  66  58 S10       29.99R
GREAT BEND     CLEAR     88  64  45 S13       29.94F
LIBERAL        CLEAR     84  64  51 S12       29.98F
$$

KSZ066>073-081>083-090>101-020200-
SOUTHEAST KANSAS

CITY           SKY/WX    TMP DP  RH WIND       PRES   REMARKS
CHANUTE        CLEAR     85  70  60 S7        29.95F
COFFEYVILLE    CLEAR     86  67  52 S5        29.95S
HUTCHINSON     CLEAR     87  68  52 S9        29.95S
MEDICINE LODGE   N/A     85  70  60 SE5       29.95R
NEWTON         CLEAR     86  66  51 S7        29.99R
PARSONS        CLEAR     85  72  65 S3        29.96F
WICHITA INTL   PTCLDY    86  70  58 S8        29.95R
WICHITA JABRA  CLEAR     85  70  60 S9        29.95S
WINFIELD       CLEAR     84  70  62 S7        29.96S
$$

KSZ007>012-019>026-033>040-048>060-102>105-020200-
NORTHEAST KANSAS

CITY           SKY/WX    TMP DP  RH WIND       PRES   REMARKS
CONCORDIA      CLEAR     84  65  52 S9        29.91F
EMPORIA        MOCLDY    86  69  56 SE5       29.94F
LAWRENCE       CLEAR     85  74  69 SE5       29.93F
MANHATTAN      CLEAR     88  67  49 S5        29.92S
OLATHE IND     CLEAR     82  68  62 SE9       29.97S
OLATHE EXE     CLEAR     82  68  62 SE10G20   29.96S
SALINA         CLEAR     89  66  46 S10       29.92F
TOPEKA BILLARD CLEAR     88  71  57 SE5       29.92F
TOPEKA FORBES  CLEAR     89  69  51 SE3       29.93F
$$


USA.gov is the U.S. government's official web portal to all federal, state and local government web resources and services.